Weather History for Forest City, IA

Change the Weather History Date:

Friday, January 18, 2013

  Actual Average Record
Temperature  
Mean Temperature 34 °F -  
Max Temperature 44 °F 23 °F 44 °F (2013)
Min Temperature 24 °F 5 °F -4 °F (2012)
Degree Days  
Heating Degree Days 31    
Moisture  
Dew Point 28 °F    
Average Humidity 78    
Maximum Humidity 100    
Minimum Humidity 61    
Precipitation  
Precipitation 0.00 in - - ()
Sea Level Pressure  
Sea Level Pressure 29.93 in    
Wind  
Wind Speed 12 mph (SSW)    
Max Wind Speed 23 mph    
Max Gust Speed 32 mph    
Visibility 10 miles    
Events      
Averages and records for this station are not official NWS values.
T = Trace of Precipitation, MM = Missing Value Source: NWS Daily Summary

Daily Weather History Graph

Daily Weather History Graph

Search for Another Location

Airport:

Trip Planner

Search our weather history database for the weather conditions in past years. The results will help you decide how hot, cold, wet, or windy it might be!

Date:

Astronomy

Jan. 18, 2013 Rise Set
Actual Time 7:41 AM CST 5:08 PM CST
Civil Twilight 7:10 AM CST 5:40 PM CST
Nautical Twilight 6:35 AM CST 6:15 PM CST
Astronomical Twilight 6:01 AM CST 6:49 PM CST
Moon 11:06 AM CST (1/18) 12:12 AM CST (1/18)
Length of Visible Light 10h 29m
Length of Day
9h 26m
Waxing Crescent, 47% of the Moon is Illuminated
Jan 18
Waxing Crescent
Jan 18
First Quarter
Jan 26
Full
Feb 3
Last Quarter
Feb 10
New

Hourly Weather History & Observations

Time (CST) Temp. Windchill Dew Point Humidity Pressure Visibility Wind Dir Wind Speed Gust Speed Precip Events Conditions
12:15 AM 24.8 °F 16.1 °F 19.4 °F 80% 30.25 in 10.0 mi SE 8.1 mph - N/A   Clear
12:35 AM 24.8 °F 14.6 °F 19.4 °F 80% 30.24 in 10.0 mi SE 10.4 mph - N/A   Clear
12:55 AM 26.6 °F 17.5 °F 19.4 °F 74% 30.23 in 10.0 mi SE 9.2 mph - N/A   Clear
1:15 AM 26.6 °F 20.0 °F 19.4 °F 74% 30.23 in 10.0 mi ESE 5.8 mph - N/A   Clear
1:35 AM 26.6 °F 18.2 °F 21.2 °F 80% 30.22 in 10.0 mi SE 8.1 mph - N/A   Clear
1:55 AM 26.6 °F 16.8 °F 21.2 °F 80% 30.20 in 10.0 mi SE 10.4 mph - N/A   Clear
2:15 AM 26.6 °F 16.8 °F 21.2 °F 80% 30.20 in 10.0 mi SE 10.4 mph - N/A   Clear
2:35 AM 26.6 °F 15.7 °F 21.2 °F 80% 30.19 in 10.0 mi SSE 12.7 mph - N/A   Clear
2:55 AM 26.6 °F 15.2 °F 21.2 °F 80% 30.17 in 10.0 mi SSE 13.8 mph - N/A   Clear
3:15 AM 26.6 °F 15.7 °F 21.2 °F 80% 30.15 in 10.0 mi SSE 12.7 mph - N/A   Clear
3:35 AM 26.6 °F 15.2 °F 21.2 °F 80% 30.13 in 10.0 mi SSE 13.8 mph - N/A   Clear
3:55 AM 26.6 °F 14.7 °F 21.2 °F 80% 30.11 in 10.0 mi SSE 15.0 mph 18.4 mph N/A   Clear
4:15 AM 26.6 °F 15.7 °F 21.2 °F 80% 30.09 in 10.0 mi SSE 12.7 mph - N/A   Clear
4:35 AM 26.6 °F 16.2 °F 21.2 °F 80% 30.08 in 10.0 mi SSE 11.5 mph - N/A   Clear
4:55 AM 26.6 °F 16.2 °F 23.0 °F 86% 30.07 in 10.0 mi SSE 11.5 mph - N/A   Clear
5:15 AM 28.4 °F 19.1 °F 23.0 °F 80% 30.06 in 10.0 mi SSE 10.4 mph - N/A   Clear
5:35 AM 28.4 °F 19.1 °F 23.0 °F 80% 30.04 in 10.0 mi SSE 10.4 mph - N/A   Clear
5:55 AM 28.4 °F 18.0 °F 24.8 °F 86% 30.02 in 10.0 mi South 12.7 mph - N/A   Clear
6:15 AM 30.2 °F 19.8 °F 24.8 °F 80% 30.00 in 10.0 mi South 13.8 mph - N/A   Clear
6:35 AM 30.2 °F 18.5 °F 24.8 °F 80% 29.98 in 10.0 mi South 17.3 mph 24.2 mph N/A   Clear
6:55 AM 32.0 °F 21.2 °F 26.6 °F 80% 29.96 in 10.0 mi South 16.1 mph 23.0 mph N/A   Clear
7:15 AM 32.0 °F 20.1 °F 26.6 °F 80% 29.95 in 10.0 mi South 19.6 mph 25.3 mph N/A   Clear
7:35 AM 32.0 °F 20.5 °F 26.6 °F 80% 29.94 in 10.0 mi South 18.4 mph 28.8 mph N/A   Clear
7:55 AM 32.0 °F 20.5 °F 26.6 °F 80% 29.94 in 10.0 mi SSW 18.4 mph - N/A   Clear
8:15 AM 32.0 °F 21.6 °F 26.6 °F 80% 29.94 in 10.0 mi SSW 15.0 mph - N/A   Clear
8:35 AM 32.0 °F 22.1 °F 26.6 °F 80% 29.94 in 10.0 mi SSW 13.8 mph 18.4 mph N/A   Clear
8:55 AM 32.0 °F 22.1 °F 26.6 °F 80% 29.94 in 10.0 mi SSW 13.8 mph 21.9 mph N/A   Clear
9:15 AM 33.8 °F 23.5 °F 26.6 °F 75% 29.93 in 10.0 mi SSW 16.1 mph 19.6 mph N/A   Clear
9:35 AM 33.8 °F 22.8 °F 26.6 °F 75% 29.92 in 10.0 mi SW 18.4 mph 23.0 mph N/A   Clear
9:55 AM 35.6 °F 24.5 °F 28.4 °F 75% 29.90 in 10.0 mi SSW 20.7 mph 26.5 mph N/A   Clear
10:15 AM 37.4 °F 27.5 °F 28.4 °F 70% 29.90 in 10.0 mi SSW 18.4 mph 28.8 mph N/A   Clear
10:35 AM 37.4 °F 27.2 °F 28.4 °F 70% 29.90 in 10.0 mi SW 19.6 mph 28.8 mph N/A   Clear
10:55 AM 37.4 °F 26.4 °F 28.4 °F 70% 29.89 in 10.0 mi SW 23.0 mph 28.8 mph N/A   Clear
11:15 AM 39.2 °F 29.3 °F 28.4 °F 65% 29.87 in 10.0 mi SW 20.7 mph 26.5 mph N/A   Clear
11:35 AM 41.0 °F 31.6 °F 30.2 °F 65% 29.86 in 10.0 mi SW 20.7 mph 29.9 mph N/A   Clear
11:55 AM 41.0 °F 31.6 °F 30.2 °F 65% 29.84 in 10.0 mi SW 20.7 mph 26.5 mph N/A   Clear
12:15 PM 41.0 °F 31.6 °F 30.2 °F 65% 29.82 in 10.0 mi SW 20.7 mph 32.2 mph N/A   Clear
12:35 PM 42.8 °F 34.3 °F 30.2 °F 61% 29.81 in 10.0 mi SW 19.6 mph 25.3 mph N/A   Clear
12:55 PM 42.8 °F 34.5 °F 30.2 °F 61% 29.80 in 10.0 mi SW 18.4 mph 25.3 mph N/A   Clear
1:15 PM 42.8 °F 34.0 °F 30.2 °F 61% 29.80 in 10.0 mi SW 20.7 mph 24.2 mph N/A   Clear
1:35 PM 42.8 °F 34.3 °F 30.2 °F 61% 29.80 in 10.0 mi SW 19.6 mph 26.5 mph N/A   Clear
1:55 PM 42.8 °F 34.5 °F 30.2 °F 61% 29.80 in 10.0 mi SW 18.4 mph 24.2 mph N/A   Clear
2:15 PM 42.8 °F 34.5 °F 32.0 °F 66% 29.79 in 10.0 mi SW 18.4 mph 23.0 mph N/A   Clear
2:35 PM 42.8 °F 34.5 °F 32.0 °F 66% 29.79 in 10.0 mi SW 18.4 mph 26.5 mph N/A   Clear
2:55 PM 42.8 °F 34.8 °F 32.0 °F 66% 29.79 in 10.0 mi SW 17.3 mph 21.9 mph N/A   Clear
3:15 PM 44.6 °F 37.2 °F 32.0 °F 61% 29.79 in 10.0 mi SW 17.3 mph 23.0 mph N/A   Clear
3:35 PM 42.8 °F 34.8 °F 32.0 °F 66% 29.78 in 10.0 mi SW 17.3 mph 24.2 mph N/A   Clear
3:55 PM 42.8 °F 35.4 °F 32.0 °F 66% 29.79 in 10.0 mi SW 15.0 mph 19.6 mph N/A   Clear
4:15 PM 42.8 °F 35.8 °F 32.0 °F 66% 29.79 in 10.0 mi SW 13.8 mph 21.9 mph N/A   Clear
4:35 PM 41.0 °F 33.1 °F 32.0 °F 70% 29.80 in 10.0 mi SW 15.0 mph 21.9 mph N/A   Clear
4:55 PM 41.0 °F 33.5 °F 32.0 °F 70% 29.81 in 10.0 mi SW 13.8 mph - N/A   Clear
5:15 PM 37.4 °F 30.3 °F 32.0 °F 81% 29.82 in 10.0 mi SW 10.4 mph - N/A   Clear
5:35 PM 37.4 °F 31.4 °F 32.0 °F 81% 29.82 in 10.0 mi WSW 8.1 mph - N/A   Clear
5:55 PM 35.6 °F 30.7 °F 32.0 °F 87% 29.82 in 10.0 mi WSW 5.8 mph - N/A   Clear
6:15 PM 35.6 °F 31.7 °F 30.2 °F 81% 29.84 in 10.0 mi WSW 4.6 mph - N/A   Clear
6:35 PM 33.8 °F 30.8 °F 30.2 °F 87% 29.82 in 10.0 mi WSW 3.5 mph - N/A   Clear
6:55 PM 33.8 °F 30.8 °F 30.2 °F 87% 29.84 in 10.0 mi WSW 3.5 mph - N/A   Clear
7:15 PM 33.8 °F 29.6 °F 30.2 °F 87% 29.84 in 10.0 mi SW 4.6 mph - N/A   Clear
7:35 PM 33.8 °F 28.6 °F 30.2 °F 87% 29.84 in 10.0 mi SW 5.8 mph - N/A   Clear
7:55 PM 33.8 °F 28.6 °F 30.2 °F 87% 29.84 in 10.0 mi SW 5.8 mph - N/A   Clear
8:15 PM 33.8 °F 27.0 °F 30.2 °F 87% 29.83 in 10.0 mi SW 8.1 mph - N/A   Clear
8:35 PM 32.0 °F - 30.2 °F 93% 29.84 in 10.0 mi Calm Calm - N/A   Clear
8:55 PM 32.0 °F 26.4 °F 30.2 °F 93% 29.83 in 10.0 mi SW 5.8 mph - N/A   Clear
9:15 PM 32.0 °F 27.5 °F 30.2 °F 93% 29.84 in 10.0 mi SW 4.6 mph - N/A   Clear
9:35 PM 32.0 °F 26.4 °F 30.2 °F 93% 29.84 in 10.0 mi SW 5.8 mph - N/A   Clear
10:15 PM 32.0 °F 27.5 °F 30.2 °F 93% 29.84 in 10.0 mi SW 4.6 mph - N/A   Clear
10:35 PM 32.0 °F 26.4 °F 30.2 °F 93% 29.84 in 10.0 mi SW 5.8 mph - N/A   Clear
10:55 PM 32.0 °F - 30.2 °F 93% 29.82 in 10.0 mi Calm Calm - N/A   Clear
11:15 PM 32.0 °F 28.7 °F 30.2 °F 93% 29.82 in 10.0 mi SW 3.5 mph - N/A   Clear
11:35 PM 32.0 °F 27.5 °F 30.2 °F 93% 29.81 in 10.0 mi SW 4.6 mph - N/A   Clear
11:55 PM 32.0 °F 28.7 °F 32.0 °F 100% 29.81 in 10.0 mi SW 3.5 mph - N/A   Clear